User: anonymous   Login
Location: Unspecified
(0.0000°N, 0.0000°E)
Time: 06:38:27
(UTC+00:00)
Language:

NNS O-25 - Orbit

View from above orbital plane
View from above orbital plane
View from above satellite
View from above satellite

Ground track
Ground track

The orbit data is extracted from the following two-line orbital elements,

1 19419U 88074A   19081.89678182  .00000055  00000-0  77668-4 0  9997
2 19419  89.9962  18.1901 0098315  53.4917  12.6523 13.42207322497076
Epoch (UTC): 22 March 2019 21:31:21
Eccentricity: 0.0098315
inclination: 89.9962°
perigee height: 1027 km
apogee height: 1174 km
right ascension of ascending node: 18.1901°
argument of perigee: 53.4917°
revolutions per day: 13.42207322
mean anomaly at epoch: 12.6523°
orbit number at epoch: 49707

The dashed part of the orbit path shows where the satellite is in the earth's shadow,  

DLR